GW6564 Weather Reports


Display with metric or nautical units.
time (UTC)temp
F
wind
direction
speed
MPH
gust
MPH
rain 1hr
in
rain 24hr
in
rain mn
in
humidity
%
barometer
mb
20260510204241 78 263 2.0 3.0 0.00 0.00 0.00 43 1011.5
20260510203737 78 237 2.0 3.0 0.00 0.00 0.00 44 1011.4
20260510203235 77 285 2.0 3.0 0.00 0.00 0.00 46 1011.4
20260510202735 77 263 1.0 1.0 0.00 0.00 0.00 47 1011.6
20260510202230 77 257 2.0 2.0 0.00 0.00 0.00 47 1011.5
20260510201728 76 262 1.0 2.0 0.00 0.00 0.00 47 1011.6
20260510201224 76 262 1.0 2.0 0.00 0.00 0.00 49 1011.5
20260510200720 77 264 1.0 2.0 0.00 0.00 0.00 47 1011.8
20260510200218 77 271 2.0 2.0 0.00 0.00 0.00 49 1011.7
20260510195715 78 262 2.0 3.0 0.00 0.00 0.00 48 1011.7
20260510195212 77 265 1.0 2.0 0.00 0.00 0.00 48 1011.7
20260510194711 75 285 2.0 3.0 0.00 0.00 0.00 47 1012.0
20260510194208 74 265 2.0 8.0 0.00 0.00 0.00 50 1012.0
20260510193703 75 293 3.0 4.0 0.00 0.00 0.00 53 1012.0
20260510193158 75 259 2.0 3.0 0.00 0.00 0.00 54 1012.2
20260510192654 76 259 1.0 3.0 0.00 0.00 0.00 49 1012.1
20260510192150 77 286 2.0 3.0 0.00 0.00 0.00 48 1012.2
20260510191646 77 264 3.0 3.0 0.00 0.00 0.00 46 1012.0
20260510191143 77 254 1.0 2.0 0.00 0.00 0.00 47 1012.1
20260510190640 77 262 1.0 3.0 0.00 0.00 0.00 45 1012.1
20260510190137 77 262 2.0 2.0 0.00 0.00 0.00 45 1012.1
20260510185634 78 259 1.0 3.0 0.00 0.00 0.00 44 1012.2
20260510185132 78 267 1.0 3.0 0.00 0.00 0.00 44 1012.2
20260510184628 78 278 3.0 4.0 0.00 0.00 0.00 42 1012.1
20260510184125 78 251 2.0 6.0 0.00 0.00 0.00 42 1011.9
20260510183620 79 286 3.0 6.0 0.00 0.00 0.00 42 1012.2
20260510183115 79 266 3.0 4.0 0.00 0.00 0.00 41 1011.8
20260510182612 79 270 3.0 6.0 0.00 0.00 0.00 41 1012.0
20260510182108 80 254 3.0 4.0 0.00 0.00 0.00 40 1012.0
20260510181606 81 201 6.0 9.0 0.00 0.00 0.00 39 1011.9
20260510181101 81 270 5.0 8.0 0.00 0.00 0.00 39 1012.1
20260510180558 80 270 1.0 4.0 0.00 0.00 0.00 40 1012.2
20260510180056 81 261 4.0 7.0 0.00 0.00 0.00 38 1012.1
20260510175556 81 270 2.0 3.0 0.00 0.00 0.00 38 1012.1
20260510175052 80 257 2.0 4.0 0.00 0.00 0.00 38 1012.2
20260510174551 80 247 3.0 6.0 0.00 0.00 0.00 39 1012.1
20260510174047 82 262 2.0 6.0 0.00 0.00 0.00 42 1012.1
20260510173542 81 278 1.0 3.0 0.00 0.00 0.00 41 1012.1
20260510173040 80 251 2.0 3.0 0.00 0.00 0.00 42 1012.0
20260510172536 80 266 4.0 6.0 0.00 0.00 0.00 43 1012.1
20260510172032 81 231 3.0 4.0 0.00 0.00 0.00 41 1012.0
20260510171529 79 244 1.0 7.0 0.00 0.00 0.00 44 1012.1
20260510171026 79 288 3.0 4.0 0.00 0.00 0.00 43 1012.2
20260510170522 80 240 1.0 3.0 0.00 0.00 0.00 43 1012.3
20260510170019 79 238 1.0 3.0 0.00 0.00 0.00 45 1012.1
20260510165515 80 209 4.0 7.0 0.00 0.00 0.00 44 1012.3
20260510165011 78 269 1.0 1.0 0.00 0.00 0.00 46 1012.3
20260510164508 78 285 2.0 3.0 0.00 0.00 0.00 45 1012.3
20260510164004 77 254 0.0 1.0 0.00 0.00 0.00 48 1012.1
20260510163500 77 273 3.0 4.0 0.00 0.00 0.00 47 1012.4
20260510162955 77 269 2.0 3.0 0.00 0.00 0.00 46 1012.3
20260510162452 76 260 1.0 4.0 0.00 0.00 0.00 50 1012.2
20260510161948 77 264 2.0 2.0 0.00 0.00 0.00 47 1012.2
20260510161444 77 255 1.0 3.0 0.00 0.00 0.00 47 1012.2
20260510160941 75 270 2.0 3.0 0.00 0.00 0.00 47 1012.4
20260510160439 75 310 1.0 3.0 0.00 0.00 0.00 48 1012.3
20260510155936 75 315 2.0 3.0 0.00 0.00 0.00 47 1012.5
20260510155435 74 244 4.0 4.0 0.00 0.00 0.00 48 1012.4
20260510154931 74 256 3.0 4.0 0.00 0.00 0.00 50 1012.5
20260510154427 74 257 1.0 6.0 0.00 0.00 0.00 52 1012.5
20260510153925 74 271 4.0 4.0 0.00 0.00 0.00 53 1012.6
20260510153422 73 257 2.0 3.0 0.00 0.00 0.00 54 1012.7
20260510152919 73 348 4.0 4.0 0.00 0.00 0.00 54 1012.8
20260510152417 72 268 3.0 3.0 0.00 0.00 0.00 56 1012.8
20260510151913 71 316 3.0 6.0 0.00 0.00 0.00 56 1012.7
20260510151410 72 321 3.0 4.0 0.00 0.00 0.00 55 1012.6
20260510150906 72 260 2.0 4.0 0.00 0.00 0.00 58 1012.6
20260510150402 72 246 3.0 4.0 0.00 0.00 0.00 59 1012.8
20260510145858 71 261 1.0 3.0 0.00 0.00 0.00 61 1012.8
20260510145355 71 259 2.0 2.0 0.00 0.00 0.00 62 1012.6
20260510144851 71 262 1.0 2.0 0.00 0.00 0.00 63 1012.8
20260510144348 71 221 2.0 2.0 0.00 0.00 0.00 62 1012.7
20260510143843 69 232 1.0 2.0 0.00 0.00 0.00 65 1012.7
20260510143339 69 254 1.0 4.0 0.00 0.00 0.00 66 1012.7
20260510142836 69 247 1.0 3.0 0.00 0.00 0.00 65 1012.6
20260510142333 68 302 2.0 3.0 0.00 0.00 0.00 67 1012.7
20260510141830 66 253 1.0 1.0 0.00 0.00 0.00 70 1012.8
20260510141327 66 233 1.0 4.0 0.00 0.00 0.00 70 1012.8
20260510140824 66 260 2.0 2.0 0.00 0.00 0.00 72 1012.8
20260510140321 65 264 2.0 2.0 0.00 0.00 0.00 73 1012.9
20260510135819 64 268 1.0 3.0 0.00 0.00 0.00 75 1012.7
20260510135315 63 257 1.0 2.0 0.00 0.00 0.00 78 1012.7
20260510134813 62 258 2.0 3.0 0.00 0.00 0.00 79 1012.6
20260510134310 62 225 3.0 4.0 0.00 0.00 0.00 79 1012.8
20260510133806 62 210 2.0 3.0 0.00 0.00 0.00 83 1012.7
20260510133302 60 269 0.0 2.0 0.00 0.00 0.00 87 1012.7
20260510132757 60 233 1.0 2.0 0.00 0.00 0.00 87 1012.7
20260510132256 59 247 0.0 2.0 0.00 0.00 0.00 91 1012.8
20260510131752 59 228 1.0 2.0 0.00 0.00 0.00 92 1013.1
20260510131250 58 259 0.0 1.0 0.00 0.00 0.00 94 1012.9
20260510130746 58 263 0.0 2.0 0.00 0.00 0.00 96 1012.9
20260510130243 56 231 0.0 1.0 0.00 0.00 0.00 96 1012.8
20260510125740 55 215 1.0 1.0 0.00 0.00 0.00 96 1013.0
20260510125236 55 226 1.0 2.0 0.00 0.00 0.00 95 1012.8
20260510124732 55 272 0.0 1.0 0.00 0.00 0.00 96 1012.8
20260510124231 55 226 0.0 3.0 0.00 0.00 0.00 96 1012.7
20260510123725 55 210 1.0 2.0 0.00 0.00 0.00 96 1012.6
20260510123221 55 203 1.0 1.0 0.00 0.00 0.00 96 1012.7
20260510122718 55 248 0.0 1.0 0.00 0.00 0.00 97 1012.4
20260510122214 54 271 0.0 1.0 0.00 0.00 0.00 96 1012.6
20260510121711 54 267 0.0 2.0 0.00 0.00 0.00 96 1012.5
20260510121209 54 213 1.0 2.0 0.00 0.00 0.00 96 1012.3
20260510120705 54 210 1.0 2.0 0.00 0.00 0.00 96 1012.2
20260510120202 54 259 0.0 2.0 0.00 0.00 0.00 96 1012.3
20260510115657 54 209 2.0 3.0 0.00 0.00 0.00 96 1012.2
20260510115156 53 233 0.0 1.0 0.00 0.00 0.00 97 1012.0
20260510114651 53 264 1.0 1.0 0.00 0.00 0.00 97 1012.2
20260510114148 53 268 0.0 1.0 0.00 0.00 0.00 97 1012.3
20260510113643 53 272 0.0 1.0 0.00 0.00 0.00 97 1012.1
20260510113140 53 262 0.0 0.0 0.00 0.00 0.00 96 1012.1
20260510112637 53 275 1.0 1.0 0.00 0.00 0.00 96 1012.1
20260510112134 53 269 1.0 3.0 0.00 0.00 0.00 96 1011.9
20260510111630 53 257 0.0 0.0 0.00 0.00 0.00 97 1011.9
20260510111126 53 229 0.0 1.0 0.00 0.00 0.00 96 1011.6
20260510110621 53 279 1.0 1.0 0.00 0.00 0.00 97 1011.6
20260510110119 53 241 1.0 2.0 0.00 0.00 0.00 96 1011.6
20260510105614 53 334 2.0 2.0 0.00 0.00 0.00 96 1011.6
20260510105109 52 266 0.0 1.0 0.00 0.00 0.00 96 1011.5
20260510104606 52 234 0.0 2.0 0.00 0.00 0.00 96 1011.3
20260510104103 52 282 1.0 2.0 0.00 0.00 0.00 96 1011.2
20260510103600 52 219 1.0 1.0 0.00 0.00 0.00 96 1011.2
20260510103055 52 256 0.0 2.0 0.00 0.00 0.00 96 1011.2
20260510102551 52 242 2.0 3.0 0.00 0.00 0.00 96 1011.4
20260510102047 52 290 1.0 2.0 0.00 0.00 0.00 96 1011.3
20260510101545 52 196 2.0 3.0 0.00 0.00 0.00 96 1011.3
20260510101044 52 253 0.0 0.0 0.00 0.00 0.00 96 1011.3
20260510100539 52 268 0.0 2.0 0.00 0.00 0.00 96 1011.2
20260510100037 52 268 1.0 2.0 0.00 0.00 0.00 96 1011.5
20260510095533 52 272 2.0 2.0 0.00 0.00 0.00 96 1011.5
20260510095032 52 257 0.0 2.0 0.00 0.00 0.00 96 1011.1
20260510094527 52 266 0.0 1.0 0.00 0.00 0.00 96 1011.1
20260510094022 52 257 1.0 3.0 0.00 0.00 0.00 96 1010.9
20260510093518 52 263 0.0 1.0 0.00 0.00 0.00 96 1010.8
20260510093015 52 266 1.0 3.0 0.00 0.00 0.00 96 1011.0
20260510092512 52 316 2.0 3.0 0.00 0.00 0.00 96 1010.9
20260510092012 52 279 1.0 2.0 0.00 0.00 0.00 96 1010.8
20260510091509 52 267 1.0 2.0 0.00 0.00 0.00 96 1010.9
20260510091005 51 324 3.0 3.0 0.00 0.00 0.00 96 1010.7
20260510090502 51 240 0.0 0.0 0.00 0.00 0.00 96 1010.5
20260510085957 51 241 0.0 1.0 0.00 0.00 0.00 96 1010.3
20260510085453 51 239 0.0 0.0 0.00 0.00 0.00 96 1010.5
20260510084948 51 239 0.0 0.0 0.00 0.00 0.00 96 1010.4
20260510084446 51 239 0.0 0.0 0.00 0.00 0.00 96 1010.3
20260510083942 51 239 0.0 0.0 0.00 0.00 0.00 96 1010.3
20260510083439 51 239 0.0 0.0 0.00 0.00 0.00 96 1010.6
20260510082934 50 239 0.0 0.0 0.00 0.00 0.00 96 1010.3
20260510082432 50 239 0.0 0.0 0.00 0.00 0.00 96 1010.4
20260510081931 50 239 0.0 0.0 0.00 0.00 0.00 96 1010.4
20260510081427 50 239 0.0 0.0 0.00 0.00 0.00 96 1010.4
20260510080924 50 239 0.0 1.0 0.00 0.00 0.00 96 1010.5
20260510080423 50 239 0.0 1.0 0.00 0.00 0.00 96 1010.3
20260510075920 50 239 1.0 1.0 0.00 0.00 0.00 96 1010.2
20260510075418 50 239 0.0 0.0 0.00 0.00 0.00 95 1010.3
20260510074914 50 239 0.0 0.0 0.00 0.00 0.00 95 1010.2
20260510074411 50 239 0.0 1.0 0.00 0.00 0.00 96 1010.1
20260510073908 50 239 0.0 0.0 0.00 0.00 0.00 96 1009.9
20260510073403 50 239 0.0 0.0 0.00 0.00 0.00 96 1009.8
20260510072900 49 239 0.0 0.0 0.00 0.00 0.00 96 1009.8
20260510072356 49 238 0.0 0.0 0.00 0.00 0.00 95 1009.6
20260510071852 49 238 0.0 0.0 0.00 0.00 0.00 95 1009.8
20260510071349 49 238 0.0 0.0 0.00 0.00 0.00 95 1009.7
20260510070848 49 238 0.0 0.0 0.00 0.00 0.00 95 1009.7
20260510070344 49 238 0.0 0.0 0.00 0.00 0.00 95 1009.8
20260510065844 49 238 0.0 0.0 0.00 0.00 0.00 95 1009.8
20260510065341 48 238 0.0 0.0 0.00 0.00 0.00 95 1009.8
20260510064838 49 238 0.0 0.0 0.00 0.00 0.00 95 1009.8
20260510064336 49 238 0.0 0.0 0.00 0.00 0.00 95 1009.7
20260510063832 49 238 0.0 0.0 0.00 0.00 0.00 95 1009.8
20260510063328 49 238 0.0 0.0 0.00 0.00 0.00 95 1009.9
20260510062825 49 238 0.0 0.0 0.00 0.00 0.00 95 1009.9
20260510062321 49 238 0.0 0.0 0.00 0.00 0.00 95 1009.9
20260510061816 49 238 0.0 0.0 0.00 0.00 0.00 95 1010.0
20260510061313 49 238 0.0 0.0 0.00 0.00 0.00 95 1010.0
20260510060809 49 238 0.0 0.0 0.00 0.00 0.00 95 1010.0
20260510060307 50 238 0.0 0.0 0.00 0.00 0.00 95 1009.9
20260510055803 49 238 0.0 0.0 0.00 0.00 0.00 95 1010.0
20260510055306 50 238 0.0 0.0 0.00 0.00 0.00 95 1010.1
20260510054801 50 238 0.0 0.0 0.00 0.00 0.00 95 1010.0
20260510054257 50 238 0.0 0.0 0.00 0.00 0.00 95 1010.1
20260510053752 50 238 0.0 0.0 0.00 0.00 0.00 94 1010.2
20260510053248 50 238 0.0 0.0 0.00 0.00 0.00 95 1010.2
20260510052744 50 238 0.0 0.0 0.00 0.00 0.00 95 1010.2
20260510052240 51 238 0.0 0.0 0.00 0.00 0.00 94 1010.2
20260510051736 51 238 0.0 0.0 0.00 0.00 0.00 94 1010.3
20260510051233 51 238 0.0 0.0 0.00 0.00 0.00 95 1010.3
20260510050730 51 238 0.0 0.0 0.00 0.00 0.00 94 1010.2
20260510050227 51 238 0.0 0.0 0.00 0.00 0.00 94 1010.3
20260510045724 51 238 0.0 0.0 0.00 0.00 0.00 94 1010.5
20260510045220 51 238 0.0 0.0 0.00 0.00 0.00 94 1010.3
20260510044716 51 238 0.0 0.0 0.00 0.00 0.00 94 1010.5
20260510044215 51 238 0.0 0.0 0.00 0.00 0.00 94 1010.5
20260510043710 51 238 0.0 0.0 0.00 0.00 0.00 94 1010.5
20260510043207 51 238 0.0 0.0 0.00 0.00 0.00 94 1010.5
20260510042704 51 238 0.0 0.0 0.00 0.00 0.00 94 1010.5
20260510042200 51 238 0.0 0.0 0.00 0.00 0.00 94 1010.3
20260510041657 52 238 0.0 0.0 0.00 0.00 0.00 94 1010.4
20260510041154 52 238 0.0 0.0 0.00 0.00 0.00 94 1010.6
20260510040651 52 238 0.0 0.0 0.00 0.00 0.00 94 1010.7
20260510040148 52 238 0.0 0.0 0.00 0.00 0.00 94 1010.5
20260510035643 52 238 0.0 0.0 0.00 0.01 0.01 94 1010.7
20260510035139 52 242 0.0 0.0 0.00 0.01 0.01 94 1010.4
20260510034636 52 242 0.0 0.0 0.00 0.01 0.01 93 1010.6
20260510034133 52 242 0.0 0.0 0.00 0.01 0.01 94 1010.4
20260510033629 52 243 0.0 0.0 0.00 0.01 0.01 93 1010.3
20260510033127 52 243 0.0 0.0 0.00 0.01 0.01 93 1010.2
20260510032623 52 242 0.0 0.0 0.00 0.01 0.01 93 1010.1
20260510032119 52 243 0.0 0.0 0.00 0.01 0.01 93 1010.1
20260510031613 52 242 0.0 0.0 0.00 0.01 0.01 93 1010.1
20260510031111 52 242 0.0 0.0 0.00 0.01 0.01 93 1010.1
20260510030605 52 242 0.0 0.0 0.00 0.01 0.01 93 1009.9
20260510030103 52 242 0.0 0.0 0.00 0.01 0.01 93 1010.0
20260510025600 53 243 0.0 0.0 0.00 0.01 0.01 93 1009.9
20260510025058 53 243 0.0 0.0 0.00 0.01 0.01 93 1009.9
20260510024554 52 242 0.0 0.0 0.00 0.01 0.01 93 1010.0
20260510024050 52 242 0.0 0.0 0.00 0.01 0.01 92 1010.0
20260510023547 52 242 0.0 0.0 0.00 0.01 0.01 92 1010.3
20260510023044 53 242 0.0 0.0 0.00 0.01 0.01 92 1010.2
20260510022543 53 242 0.0 0.0 0.00 0.01 0.01 92 1010.0
20260510022037 53 242 0.0 0.0 0.00 0.01 0.01 92 1010.0
20260510021534 53 242 0.0 0.0 0.00 0.01 0.01 92 1009.9
20260510021033 53 242 0.0 0.0 0.00 0.01 0.01 92 1010.0
20260510020532 53 242 0.0 0.0 0.00 0.01 0.01 92 1009.8
20260510020028 53 242 0.0 0.0 0.00 0.01 0.01 92 1010.0
20260510015524 53 242 0.0 0.0 0.00 0.01 0.01 92 1009.9
20260510015020 53 242 0.0 0.0 0.00 0.01 0.01 92 1009.9
20260510014517 54 242 0.0 0.0 0.00 0.01 0.01 92 1009.9
20260510014014 54 242 0.0 0.0 0.00 0.01 0.01 91 1009.8
20260510013508 54 242 0.0 0.0 0.00 0.01 0.01 91 1010.0
20260510013004 54 242 0.0 0.0 0.00 0.01 0.01 91 1009.8
20260510012459 54 242 0.0 0.0 0.00 0.01 0.01 91 1009.9
20260510011954 54 242 0.0 0.0 0.00 0.01 0.01 91 1009.8
20260510011449 54 242 0.0 0.0 0.00 0.01 0.01 90 1009.9
20260510010945 55 242 0.0 0.0 0.00 0.01 0.01 90 1009.7
20260510010443 55 242 0.0 0.0 0.00 0.01 0.01 90 1009.7
20260510005940 55 242 0.0 0.0 0.00 0.01 0.01 90 1009.6
20260510005435 55 243 0.0 0.0 0.00 0.01 0.01 89 1009.6
20260510004933 55 242 0.0 0.0 0.00 0.01 0.01 89 1009.6
20260510004430 55 242 0.0 0.0 0.00 0.01 0.01 89 1009.7
20260510003928 55 243 0.0 0.0 0.00 0.01 0.01 88 1009.6
20260510003425 56 243 0.0 0.0 0.00 0.01 0.01 88 1009.7
20260510002924 56 242 0.0 0.0 0.00 0.01 0.01 87 1009.6
20260510002421 56 242 0.0 0.0 0.00 0.01 0.01 87 1009.6
20260510001918 56 242 0.0 0.0 0.00 0.01 0.01 86 1009.7
20260510001415 57 242 0.0 0.0 0.00 0.01 0.01 86 1009.6
20260510000912 57 242 0.0 0.0 0.00 0.01 0.01 85 1009.5
20260510000411 57 243 0.0 0.0 0.00 0.01 0.01 85 1009.6
20260509235905 58 243 0.0 0.0 0.00 0.01 0.01 84 1009.7
20260509235402 58 243 0.0 0.0 0.00 0.01 0.01 83 1009.8
20260509234858 58 243 0.0 0.0 0.00 0.01 0.01 83 1009.8
20260509234356 58 242 0.0 0.0 0.00 0.01 0.01 82 1009.6
20260509233853 59 242 0.0 1.0 0.00 0.01 0.01 82 1009.5
20260509233351 59 252 0.0 1.0 0.00 0.01 0.01 82 1009.4
20260509232846 59 264 1.0 1.0 0.00 0.01 0.01 81 1009.5
20260509232344 59 238 0.0 1.0 0.00 0.01 0.01 81 1009.4
20260509231840 59 235 0.0 3.0 0.00 0.01 0.01 81 1009.2
20260509231337 59 192 1.0 2.0 0.00 0.01 0.01 81 1009.1
20260509230835 59 181 1.0 4.0 0.00 0.01 0.01 82 1009.0
20260509230332 59 161 2.0 3.0 0.00 0.01 0.01 82 1009.2
20260509225827 59 181 2.0 2.0 0.00 0.01 0.01 82 1009.3
20260509225324 59 203 1.0 2.0 0.00 0.01 0.01 82 1009.4
20260509224820 59 242 0.0 3.0 0.00 0.01 0.01 82 1009.4
20260509224316 59 259 0.0 3.0 0.00 0.01 0.01 82 1009.4
20260509223813 59 228 1.0 4.0 0.00 0.01 0.01 82 1009.4
20260509223310 59 296 2.0 3.0 0.00 0.01 0.01 82 1009.5
20260509222806 59 257 1.0 2.0 0.00 0.01 0.01 82 1009.2
20260509222306 59 266 1.0 2.0 0.00 0.01 0.01 82 1009.2
20260509221758 59 312 1.0 2.0 0.00 0.01 0.01 82 1009.4
20260509221255 59 212 2.0 2.0 0.00 0.01 0.01 82 1009.5
20260509220751 59 274 1.0 2.0 0.00 0.01 0.01 81 1009.5
20260509220247 59 319 1.0 2.0 0.00 0.01 0.01 80 1009.5
20260509215742 59 262 0.0 0.0 0.00 0.01 0.01 79 1009.5
20260509215240 60 195 2.0 2.0 0.00 0.01 0.01 79 1009.6
20260509214736 60 279 2.0 3.0 0.00 0.01 0.01 76 1009.9
20260509214234 61 271 1.0 3.0 0.00 0.01 0.01 74 1009.8
20260509213730 61 318 2.0 3.0 0.00 0.01 0.01 72 1009.6
20260509213226 62 273 3.0 3.0 0.00 0.01 0.01 70 1009.5
20260509212724 62 309 1.0 2.0 0.00 0.01 0.01 68 1009.6
20260509212221 62 273 1.0 4.0 0.00 0.01 0.01 68 1009.8
20260509211717 63 257 1.0 3.0 0.00 0.01 0.01 67 1009.8
20260509211213 63 336 2.0 4.0 0.00 0.01 0.01 66 1009.8
20260509210710 64 273 1.0 2.0 0.00 0.01 0.01 66 1009.6
20260509210207 64 302 2.0 2.0 0.00 0.01 0.01 65 1009.7
20260509205707 64 23 1.0 3.0 0.00 0.01 0.01 65 1009.3
20260509205207 64 262 0.0 1.0 0.00 0.01 0.01 66 1009.4
20260509204703 64 328 1.0 3.0 0.00 0.01 0.01 65 1009.6